User: anonymous   Login
Location: Theydon Bois
(51.6750°N, 0.1050°E)
Time: 06:57:27
(UTC+01:00)
Language:

Resurs 1-3 - Orbit

View from above orbital plane
View from above orbital plane
View from above satellite
View from above satellite

Ground track
Ground track

The orbit data is extracted from the following two-line orbital elements,

1 23342U 94074A   17289.69990573  .00000079  00000-0  17803-4 0  9992
2 23342  98.0663 328.4360 0001968  87.6569 272.4868 14.79292211235745
Epoch (UTC): 16 October 2017 16:47:51
Eccentricity: 0.0001968
inclination: 98.0663°
perigee height: 630 km
apogee height: 633 km
right ascension of ascending node: 328.4360°
argument of perigee: 87.6569°
revolutions per day: 14.79292211
mean anomaly at epoch: 272.4868°
orbit number at epoch: 23574

The dashed part of the orbit path shows where the satellite is in the earth's shadow,  

DLR